Location: Hurecourt
(47.9030°N, 6.0653°E)
Time: 20:30:53
(UTC+00:00)

Cosmos 1184 Rocket - Pass Details

Date: 14 July 2020
Orbit: 408 x 422 km, 81.2° (Epoch: 14 August)

Event Time Altitude Azimuth Distance (km) Brightness Sun altitude
Exits shadow 00:50:03 73° 199° (SSW) 439 2.6 -18.8°
Maximum altitude 00:50:19 88° 274° (W) 422 2.6 -18.8°
Drops below altitude 10° 00:53:36 10° 11° (N) 1,506 6.8 -18.6°
Sets 00:55:39 0° 12° (NNE) 2,378 8.2 -18.5°
